Wind_Speed
2 2 1 1 1 2 3 3 3 3 4 4 3 3 2 2 2 2 2 2 2 2 2 3 3 4 5 5 6 6 6 6 6 6 6 6 5 5 4 3 3 3 3 3 4 4 5 6 7
4 3 3 2 3 3 4 4 4 4 5 4 4 4 3 3 3 2 2 2 2 2 2 2 3 4 5 5 6 6 6 6 6 6 6 6 6 5 5 4 3 4 4 4 4 4 5 6 6
6 5 4 4 5 5 5 5 5 5 5 5 5 4 4 4 3 3 2 2 2 2 2 2 3 4 4 5 6 6 6 6 7 6 6 7 6 6 6 5 4 4 4 4 4 4 5 6 7
7 6 6 6 6 6 6 6 6 6 6 6 6 5 5 5 4 4 3 2 2 2 1 2 3 3 4 5 6 6 6 7 7 7 7 7 7 7 6 6 5 5 4 4 4 5 5 6 6
7 7 7 7 7 7 7 7 7 7 7 6 6 7 6 5 5 5 4 3 2 1 1 2 2 4 4 5 6 6 7 7 8 7 7 7 7 7 6 6 5 5 5 5 5 5 5 6 6
8 8 8 8 8 7 8 8 8 8 7 7 7 7 7 6 5 5 4 2 2 1 1 2 2 4 5 5 6 6 7 7 8 8 8 8 7 7 7 6 6 5 5 5 5 5 5 6 7
8 8 9 9 9 9 9 9 8 8 8 7 7 7 7 7 6 6 4 3 2 1 1 1 2 4 5 5 6 6 7 8 8 9 9 8 8 8 7 7 6 5 4 4 4 4 5 6 7
10 10 10 11 10 10 10 10 9 9 9 9 7 7 7 7 6 6 5 4 2 1 1 1 2 3 4 5 5 6 7 8 9 9 9 9 8 8 8 7 6 5 4 3 3 4 5 6 7
10 11 11 12 11 11 10 11 11 11 11 10 8 7 8 7 7 6 5 5 3 1 1 1 2 3 3 4 5 6 7 8 9 9 9 9 9 9 8 8 7 5 3 3 3 4 4 6 7
12 12 12 12 12 12 12 11 11 11 10 10 9 8 8 8 7 6 6 5 3 2 1 1 2 2 3 4 5 6 7 8 8 9 9 10 9 9 9 9 7 5 4 3 3 4 4 5 6
13 13 12 13 13 12 12 12 12 11 10 10 9 9 8 8 7 7 6 5 4 3 2 1 1 2 3 4 5 6 7 8 8 10 10 10 10 10 10 9 8 6 4 3 3 4 5 5 6
13 14 13 13 14 14 13 13 12 12 10 10 10 9 9 8 8 7 6 6 5 4 2 1 1 2 3 4 5 6 7 8 9 10 10 10 10 10 10 10 9 8 6 4 2 2 4 5 6
13 13 14 14 14 14 15 14 13 12 11 11 10 10 10 10 8 8 6 6 5 4 3 1 0 1 2 3 5 6 7 8 9 10 10 10 10 10 11 11 10 9 6 5 3 1 2 4 5
13 13 15 15 15 14 14 14 13 13 13 11 10 10 10 11 8 7 7 6 6 5 4 2 1 1 2 3 5 6 7 8 9 9 10 10 10 10 11 11 10 9 7 5 4 2 1 3 4
13 14 14 15 15 15 14 14 14 14 13 12 11 12 11 11 9 8 7 6 6 5 4 3 2 1 1 3 4 6 7 8 9 9 10 10 10 10 11 11 11 9 8 6 5 4 2 2 3
12 12 13 14 14 14 14 13 14 14 13 13 12 11 10 10 10 9 8 7 6 6 5 4 2 1 1 2 4 5 6 7 8 9 9 10 10 10 10 11 11 10 9 7 6 5 4 3 3
11 12 12 13 13 13 13 13 13 13 13 12 12 11 10 9 10 9 9 8 8 6 6 4 3 2 1 1 3 4 5 7 7 8 9 10 10 10 10 11 11 10 9 8 7 6 5 5 4
11 12 12 12 12 12 12 12 13 13 13 12 11 11 10 10 10 10 10 10 9 8 6 5 4 3 2 1 2 3 5 6 7 8 8 9 10 10 10 10 11 10 9 9 8 7 6 5 5
12 12 12 12 12 12 12 12 13 13 13 12 11 11 11 11 10 10 10 10 9 8 7 6 5 4 3 2 2 3 4 5 6 7 8 8 9 9 9 10 10 10 10 9 8 7 7 6 5
12 12 12 13 11 11 11 11 11 12 11 12 11 11 11 10 10 10 10 9 9 8 7 7 6 5 3 2 2 2 3 4 5 6 7 8 8 9 9 9 9 9 9 9 8 8 7 6 5
12 12 12 13 11 10 11 10 9 10 11 11 11 11 11 11 10 10 10 9 10 9 8 8 7 5 4 3 2 2 2 3 4 5 6 7 7 8 8 8 8 8 9 9 8 8 7 7 6
10 10 12 11 10 9 10 10 9 10 10 10 11 11 11 11 11 11 11 10 10 10 9 8 7 6 5 4 3 3 2 2 3 4 5 5 6 7 8 8 8 8 8 8 8 7 7 7 6
9 8 8 9 10 9 10 10 10 10 11 11 11 11 11 11 11 10 10 10 10 10 9 8 9 7 6 5 4 3 2 1 2 3 4 4 4 5 6 7 7 7 7 7 8 7 6 6 6
9 8 7 8 9 9 9 9 10 10 11 11 10 11 11 10 10 9 9 10 10 9 9 9 9 8 7 6 5 4 3 2 1 1 3 3 3 4 5 6 6 6 7 7 7 7 7 6 5
9 9 8 8 8 9 9 10 10 10 10 10 10 10 10 10 9 10 10 10 10 9 9 8 8 9 8 7 6 5 4 3 2 1 1 2 3 3 4 5 5 5 6 6 6 6 6 6 6
9 9 7 6 6 8 9 10 10 9 10 10 10 10 9 10 10 10 9 9 9 9 9 9 9 9 9 8 7 6 5 4 3 2 1 1 2 3 4 4 4 5 5 6 6 6 6 6 5
10 9 8 7 7 8 8 10 9 9 9 10 10 10 10 10 11 10 9 9 8 9 9 10 10 9 10 9 8 7 6 5 4 2 2 2 2 2 3 4 4 4 5 5 6 6 6 5 5
11 11 11 10 9 9 9 9 9 10 10 10 11 11 10 10 10 10 10 9 8 9 10 10 10 10 10 9 9 9 7 6 5 4 3 2 2 2 3 3 4 4 4 5 5 5 6 6 5
11 11 11 10 9 9 9 10 10 10 10 10 10 10 10 10 10 11 10 10 9 9 11 10 10 10 10 10 9 9 8 7 6 5 4 3 3 3 3 4 4 4 4 5 5 6 6 6 6
11 10 10 10 10 11 10 10 11 11 11 10 11 10 10 11 11 11 11 10 10 10 11 11 10 10 10 10 10 10 9 8 8 7 6 5 5 5 5 5 5 5 6 6 6 6 7 7 7
Wind_Direction
277 285 287 260 290 289 299 300 288 290 290 286 276 268 263 273 290 310 326 336 353 360 3 9 27 31 24 21 18 8 5 10 12 12 10 7 360 350 341 326 301 284 275 264 253 242 230 225 224
260 261 270 273 276 280 279 285 284 281 282 279 273 268 262 266 272 286 297 317 336 341 345 359 10 18 16 11 9 7 5 9 11 11 8 4 358 354 349 338 314 293 282 273 257 243 233 224 222
257 258 255 258 265 273 269 271 274 273 275 270 268 268 267 264 268 272 278 295 309 321 337 356 4 9 11 9 11 11 12 13 12 10 4 358 355 353 347 337 321 301 285 275 259 246 237 227 224
254 255 255 258 268 273 268 265 269 269 267 266 264 266 271 266 262 259 263 277 282 306 340 2 8 18 19 17 15 15 13 8 9 5 1 357 354 352 346 336 323 307 289 278 262 249 240 230 225
250 250 254 260 267 269 269 267 269 266 263 263 262 264 266 264 254 249 254 262 271 295 330 7 21 23 19 16 11 13 12 10 9 6 360 356 353 350 344 335 322 308 295 281 268 252 240 230 226
249 248 250 255 262 267 266 269 269 264 259 260 259 263 265 260 253 246 243 242 261 269 359 21 27 18 15 16 17 16 14 14 13 7 360 355 352 349 344 337 326 312 299 287 271 252 237 226 223
247 248 251 254 260 264 264 264 266 259 259 260 258 259 261 254 252 242 232 233 247 283 353 11 10 11 13 21 19 15 15 14 12 7 2 359 355 351 346 341 332 320 305 288 269 249 235 223 221
248 250 254 256 258 261 260 261 266 262 263 257 257 262 257 247 244 236 230 232 234 243 291 319 7 12 20 23 20 17 13 12 10 6 3 1 359 355 350 346 341 329 313 294 271 248 234 222 219
248 251 254 257 259 264 264 262 265 265 264 262 260 259 256 247 240 232 236 232 222 218 267 317 1 8 18 17 17 14 12 11 11 7 5 4 360 358 357 355 350 339 318 298 275 247 236 221 217
249 252 255 260 263 264 264 265 264 261 260 260 260 254 251 250 235 233 238 232 221 226 248 299 347 17 23 19 16 14 14 13 11 9 7 6 5 5 4 2 356 346 326 304 277 247 234 223 217
252 256 261 261 263 263 262 264 262 261 261 256 259 258 252 243 235 237 234 230 228 240 253 303 346 19 23 17 16 16 15 14 13 11 9 9 10 10 11 8 1 354 342 321 285 248 228 219 212
252 255 259 261 263 263 262 263 261 260 254 254 254 257 257 244 237 236 231 231 232 236 249 279 325 14 17 17 19 17 14 13 12 12 12 13 14 16 16 14 10 7 4 360 334 250 220 212 206
254 257 259 262 263 263 261 260 260 255 252 252 252 256 254 246 236 233 232 232 234 234 241 242 294 6 15 16 18 15 11 11 11 13 14 16 18 17 19 20 19 18 19 22 33 73 195 198 200
259 260 260 260 263 263 259 257 255 250 251 251 252 253 251 244 234 231 235 229 232 236 237 232 273 344 5 7 13 11 11 12 12 13 14 16 18 20 21 23 24 27 30 35 47 66 127 180 192
259 261 260 261 264 262 260 255 246 246 249 248 251 254 250 250 245 240 240 235 234 233 227 224 244 299 359 2 6 8 12 14 14 15 16 16 18 21 24 27 29 34 37 42 51 62 88 144 170
260 263 262 264 264 262 258 251 245 246 247 247 247 251 247 247 243 240 241 238 233 236 229 224 235 269 335 355 4 9 14 13 14 17 17 18 19 21 27 31 33 37 41 47 54 64 78 102 138
262 264 264 263 261 257 255 250 244 245 245 245 244 247 244 242 236 239 243 236 233 239 232 225 233 250 283 335 360 11 14 14 15 18 18 19 20 24 29 34 37 41 44 52 59 66 74 86 102
265 265 263 261 259 257 256 252 244 247 243 242 242 243 243 241 235 239 243 240 237 238 230 224 233 242 258 300 341 7 10 11 16 19 20 21 24 26 30 37 41 43 48 54 61 66 72 85 98
261 263 261 258 261 257 254 251 249 246 242 239 240 246 246 238 233 233 237 239 239 234 224 226 231 239 247 270 312 356 2 9 17 20 22 21 24 28 32 38 43 45 50 54 58 64 68 74 86
256 258 258 257 259 253 246 249 247 245 238 239 242 242 245 240 232 231 232 235 234 227 222 224 228 235 239 253 288 331 354 7 14 21 25 24 26 29 32 36 43 47 50 55 55 57 62 64 72
256 255 252 256 251 246 245 246 241 239 236 235 237 241 245 240 234 233 235 236 229 225 223 222 224 229 236 247 273 298 336 357 7 20 27 29 30 33 34 37 42 48 50 53 53 54 55 55 59
260 259 253 255 246 245 247 249 243 246 242 236 237 238 243 238 234 235 234 233 232 226 226 224 224 226 233 240 257 275 309 350 2 17 25 26 29 35 39 40 43 49 50 49 51 51 49 50 56
252 253 250 250 247 251 247 252 244 244 242 237 237 238 241 236 233 235 234 229 228 226 228 229 226 226 232 239 248 267 266 311 352 15 19 17 23 36 39 39 41 45 45 44 45 44 44 45 48
244 246 243 248 255 255 251 255 249 248 242 235 235 237 240 237 233 231 232 227 225 226 228 226 224 226 230 238 243 254 241 257 304 359 16 16 20 26 27 32 36 37 37 38 39 40 40 39 41
243 242 242 247 256 258 258 258 254 246 238 237 236 232 232 236 232 229 231 225 221 225 226 224 226 226 228 232 238 246 237 240 258 303 360 18 24 23 23 25 26 27 26 27 29 29 31 36 40
238 239 232 236 250 257 257 254 254 248 239 239 234 231 232 234 228 229 231 225 223 229 225 223 228 226 227 228 235 239 237 239 245 263 309 345 359 9 18 19 16 16 18 18 17 16 20 24 28
238 241 233 230 230 240 256 255 250 249 243 238 233 230 232 232 231 231 231 227 229 230 225 226 227 227 228 230 232 231 234 238 244 259 282 298 317 343 2 12 7 3 4 6 8 9 9 7 8
237 233 227 228 233 236 248 257 251 249 249 235 231 230 229 232 232 233 231 228 234 231 228 231 231 234 233 233 232 227 226 233 246 254 264 278 300 318 334 350 358 354 353 352 353 354 354 350 342
232 231 230 232 235 236 241 252 248 245 244 235 234 231 231 235 239 238 233 233 234 234 233 235 231 232 233 233 234 230 229 233 239 248 257 269 285 301 314 322 330 329 329 333 336 337 337 335 331
232 234 233 234 238 238 240 245 246 249 242 237 237 236 237 240 247 243 239 233 233 235 232 234 235 233 234 234 235 230 232 237 242 248 256 266 277 287 296 306 316 319 316 318 320 322 324 325 325
Height
5887 5887 5888 5888 5890 5890 5889 5889 5889 5889 5889 5889 5889 5889 5889 5889 5890 5892 5889 5888 5888 5888 5887 5887 5886 5886 5885 5884 5883 5882 5881 5880 5880 5879 5878 5878 5877 5876 5876 5875 5875 5875 5875 5875 5875 5875 5876 5877 5877
5887 5887 5888 5889 5889 5889 5889 5888 5888 5889 5889 5888 5888 5889 5889 5889 5889 5889 5888 5888 5888 5888 5887 5887 5886 5886 5885 5884 5883 5882 5881 5880 5880 5879 5878 5877 5877 5876 5875 5875 5874 5874 5874 5874 5874 5875 5875 5876 5876
5886 5887 5888 5888 5888 5888 5889 5888 5888 5888 5888 5888 5888 5889 5889 5889 5889 5888 5888 5888 5888 5888 5887 5887 5887 5886 5885 5884 5883 5882 5881 5880 5880 5879 5878 5877 5876 5875 5875 5874 5874 5873 5873 5873 5873 5874 5874 5875 5875
5885 5886 5888 5888 5887 5887 5887 5887 5887 5888 5888 5888 5888 5888 5888 5888 5888 5888 5888 5888 5888 5888 5887 5887 5887 5886 5885 5885 5884 5883 5882 5881 5879 5879 5878 5877 5876 5875 5874 5873 5873 5872 5872 5872 5872 5872 5873 5873 5874
5884 5885 5886 5886 5886 5886 5886 5886 5887 5887 5887 5887 5888 5887 5887 5888 5888 5888 5888 5888 5888 5888 5888 5887 5887 5886 5886 5885 5884 5883 5882 5880 5879 5878 5877 5876 5875 5874 5873 5872 5872 5871 5871 5870 5870 5871 5871 5872 5873
5883 5884 5885 5884 5885 5885 5885 5885 5886 5886 5886 5887 5887 5887 5887 5887 5887 5888 5888 5888 5888 5888 5888 5887 5887 5887 5886 5885 5884 5883 5882 5880 5879 5878 5877 5876 5874 5873 5872 5871 5870 5870 5869 5869 5869 5869 5870 5871 5872
5882 5883 5883 5883 5883 5884 5884 5884 5885 5885 5885 5886 5886 5886 5886 5886 5887 5887 5887 5888 5888 5888 5888 5888 5887 5887 5886 5885 5884 5883 5882 5881 5879 5878 5876 5875 5874 5872 5871 5870 5869 5868 5867 5867 5867 5868 5868 5869 5870
5880 5882 5881 5881 5882 5883 5883 5883 5883 5884 5884 5885 5885 5886 5886 5886 5886 5886 5887 5887 5887 5888 5888 5888 5887 5887 5886 5885 5884 5883 5882 5881 5879 5878 5876 5875 5873 5872 5870 5869 5868 5867 5866 5866 5866 5866 5867 5868 5869
5878 5880 5879 5879 5880 5881 5881 5882 5882 5882 5883 5883 5884 5885 5885 5885 5885 5886 5887 5887 5887 5888 5888 5888 5887 5887 5886 5886 5885 5884 5882 5881 5880 5878 5876 5875 5873 5871 5870 5868 5867 5866 5865 5865 5865 5865 5866 5866 5867
5876 5877 5877 5877 5879 5879 5880 5880 5881 5881 5882 5882 5883 5883 5884 5884 5885 5885 5886 5886 5887 5888 5888 5887 5887 5887 5887 5886 5885 5884 5883 5881 5880 5878 5877 5875 5873 5871 5869 5868 5866 5865 5864 5863 5863 5863 5864 5865 5866
5874 5875 5875 5876 5876 5877 5878 5879 5879 5880 5880 5881 5882 5883 5883 5883 5884 5885 5886 5886 5887 5887 5887 5887 5887 5887 5887 5886 5885 5884 5883 5882 5880 5879 5877 5875 5873 5871 5869 5867 5865 5864 5863 5862 5862 5862 5863 5864 5865
5872 5873 5873 5874 5875 5875 5876 5877 5877 5878 5879 5880 5880 5881 5882 5882 5883 5884 5885 5886 5887 5887 5887 5888 5888 5887 5887 5886 5886 5885 5883 5882 5881 5879 5877 5875 5873 5872 5870 5868 5866 5864 5863 5862 5861 5861 5862 5863 5864
5870 5871 5871 5872 5873 5873 5874 5875 5876 5876 5877 5878 5879 5880 5881 5882 5882 5883 5884 5885 5886 5887 5887 5888 5888 5888 5887 5887 5886 5885 5884 5883 5881 5880 5878 5876 5874 5872 5870 5868 5866 5864 5863 5862 5861 5861 5862 5863 5864
5867 5868 5869 5870 5870 5871 5872 5873 5874 5875 5875 5877 5878 5879 5879 5880 5881 5882 5883 5884 5886 5886 5887 5888 5888 5888 5887 5887 5886 5885 5884 5883 5882 5880 5878 5876 5874 5872 5871 5869 5867 5865 5863 5862 5862 5862 5862 5863 5864
5865 5866 5866 5867 5868 5869 5870 5871 5872 5872 5873 5875 5876 5877 5878 5879 5880 5881 5882 5883 5885 5886 5887 5887 5888 5888 5887 5887 5887 5886 5885 5884 5882 5881 5879 5877 5875 5873 5871 5869 5868 5866 5864 5863 5863 5863 5863 5864 5865
5862 5863 5864 5865 5865 5866 5869 5869 5869 5870 5872 5873 5875 5876 5877 5878 5879 5881 5881 5883 5884 5885 5886 5887 5887 5887 5887 5887 5887 5886 5885 5884 5883 5881 5880 5878 5876 5874 5872 5870 5869 5867 5866 5865 5864 5864 5864 5864 5865
5860 5861 5861 5863 5863 5864 5865 5866 5867 5868 5870 5871 5873 5874 5875 5877 5878 5880 5881 5882 5883 5885 5885 5886 5887 5887 5887 5887 5887 5887 5886 5885 5884 5882 5881 5879 5877 5875 5873 5872 5870 5869 5868 5867 5866 5866 5865 5865 5866
5858 5859 5859 5860 5861 5861 5862 5864 5865 5866 5868 5869 5871 5872 5874 5876 5877 5878 5880 5881 5882 5884 5885 5885 5886 5887 5887 5887 5888 5887 5886 5885 5884 5883 5881 5880 5878 5876 5875 5873 5872 5871 5869 5868 5868 5867 5867 5867 5867
5856 5857 5857 5858 5858 5859 5860 5861 5863 5864 5866 5868 5869 5871 5872 5874 5875 5877 5879 5880 5881 5883 5884 5885 5885 5886 5887 5887 5888 5887 5887 5886 5885 5884 5882 5881 5879 5877 5876 5875 5874 5873 5871 5870 5870 5869 5869 5868 5868
5854 5855 5855 5856 5857 5857 5858 5859 5861 5862 5863 5865 5867 5869 5870 5872 5874 5876 5877 5878 5880 5881 5882 5883 5885 5886 5887 5887 5887 5887 5887 5886 5885 5884 5883 5882 5880 5879 5877 5876 5875 5874 5873 5873 5872 5871 5871 5870 5870
5852 5853 5853 5854 5855 5855 5857 5858 5859 5860 5862 5863 5865 5867 5869 5871 5873 5874 5875 5877 5878 5879 5881 5882 5884 5885 5886 5887 5887 5887 5887 5887 5886 5885 5884 5883 5882 5880 5879 5878 5877 5876 5875 5874 5874 5873 5872 5872 5871
5850 5851 5852 5852 5853 5854 5856 5857 5858 5859 5860 5862 5863 5865 5867 5869 5871 5873 5874 5875 5877 5878 5879 5881 5883 5884 5885 5886 5887 5887 5887 5887 5886 5886 5885 5884 5883 5882 5881 5880 5879 5878 5877 5876 5875 5875 5874 5873 5872
5848 5849 5850 5850 5851 5853 5854 5855 5857 5857 5858 5860 5862 5863 5865 5867 5869 5871 5872 5874 5875 5877 5878 5880 5881 5883 5884 5885 5886 5886 5886 5887 5886 5886 5885 5885 5884 5883 5882 5881 5881 5880 5879 5878 5877 5876 5875 5874 5873
5847 5848 5849 5849 5850 5852 5852 5853 5855 5856 5857 5859 5860 5862 5863 5865 5867 5869 5870 5872 5874 5875 5877 5878 5880 5881 5883 5884 5885 5886 5886 5886 5887 5886 5886 5885 5885 5884 5884 5883 5882 5882 5881 5880 5879 5878 5877 5876 5875
5846 5848 5848 5848 5849 5851 5851 5852 5854 5854 5856 5857 5859 5860 5861 5863 5865 5867 5869 5871 5872 5874 5875 5877 5878 5880 5881 5883 5884 5885 5885 5886 5886 5886 5886 5886 5886 5886 5885 5884 5883 5883 5882 5881 5880 5879 5878 5877 5876
5845 5846 5848 5848 5849 5850 5850 5851 5853 5853 5855 5856 5857 5859 5860 5862 5864 5866 5867 5869 5871 5872 5873 5875 5877 5878 5880 5881 5883 5884 5885 5885 5886 5886 5886 5886 5886 5886 5885 5885 5884 5884 5883 5882 5881 5880 5879 5878 5878
5843 5844 5845 5846 5847 5848 5849 5850 5851 5852 5853 5855 5856 5858 5859 5861 5863 5864 5866 5868 5869 5870 5872 5874 5875 5877 5878 5880 5881 5882 5884 5884 5885 5886 5886 5886 5886 5886 5886 5885 5885 5884 5883 5883 5882 5881 5880 5880 5879
5842 5842 5844 5845 5846 5846 5848 5848 5850 5851 5852 5853 5854 5856 5858 5860 5861 5863 5864 5866 5867 5869 5871 5872 5874 5875 5877 5878 5880 5881 5882 5884 5884 5885 5886 5886 5886 5886 5886 5885 5885 5884 5884 5883 5882 5882 5881 5880 5879
5840 5841 5842 5843 5844 5845 5846 5849 5848 5849 5850 5851 5853 5854 5856 5858 5860 5861 5863 5864 5865 5867 5869 5870 5872 5874 5875 5876 5878 5880 5881 5882 5883 5884 5885 5885 5885 5885 5885 5885 5885 5884 5884 5883 5882 5881 5881 5880 5879
5837 5839 5840 5842 5842 5843 5844 5848 5845 5847 5848 5849 5851 5853 5854 5856 5858 5859 5861 5862 5863 5865 5867 5869 5870 5872 5873 5874 5876 5878 5879 5881 5882 5883 5884 5884 5884 5884 5884 5884 5884 5883 5883 5882 5881 5881 5880 5879 5878